User: anonymous   Login
Location: Byszew
(52.1813°N, 19.2693°E)
Time: 11:28:48
(UTC+00:00)
Language:

Cosmos 2278 Rocket - Orbit

View from above orbital plane
View from above orbital plane
View from above satellite
View from above satellite

Ground track
Ground track

The orbit data is extracted from the following two-line orbital elements,

1 23088U 94023B   21133.46743448 -.00000061  00000-0 -67293-5 0  9990
2 23088  70.9993 168.4433 0000877  96.5785 263.5437 14.14689545396983
Epoch (UTC): 13 May 2021 11:13:06
Eccentricity: 0.0000877
inclination: 70.9993°
perigee height: 843 km
apogee height: 844 km
right ascension of ascending node: 168.4433°
argument of perigee: 96.5785°
revolutions per day: 14.14689545
mean anomaly at epoch: 263.5437°
orbit number at epoch: 39698

The dashed part of the orbit path shows where the satellite is in the earth's shadow,  

DLR